Temp
50 50 50 48 48 49 48 46 45 39 39 44 44 46 46 44 45 44 44 46 47 47 47 48 50 51 52 52 53 53 53 53 53 52 52 52 51 51
51 50 50 49 48 48 48 47 46 44 40 44 44 45 45 46 45 45 43 46 46 46 45 46 47 48 49 50 50 51 51 52 51 51 51 50 50 50
51 50 50 50 48 48 47 46 45 43 41 42 42 42 41 41 43 43 43 42 43 44 44 45 45 45 46 46 47 48 49 50 50 50 50 50 49 50
50 50 50 49 48 48 46 44 44 43 40 39 40 38 38 40 40 39 43 44 43 44 44 44 44 44 44 44 44 45 45 46 46 46 47 48 48 49
51 50 49 47 46 44 44 44 42 43 39 37 36 35 36 37 37 38 38 39 41 44 43 43 43 44 44 43 43 43 43 43 43 43 43 44 45 46
50 49 49 48 47 44 43 42 40 38 36 33 32 34 34 36 34 34 34 35 36 41 42 41 41 42 43 43 43 43 43 43 43 42 41 41 41 42
47 46 45 44 43 42 41 38 37 35 34 32 31 31 31 32 33 33 32 32 33 35 36 36 37 37 38 39 41 42 43 42 42 42 41 40 40 40
42 40 40 39 38 37 37 37 37 35 33 32 31 31 32 32 32 31 30 28 28 34 32 32 36 36 37 38 38 39 40 42 42 41 41 41 40 40
38 37 38 38 37 36 36 36 35 36 33 33 30 30 30 31 31 30 29 29 30 34 33 32 35 34 37 38 38 39 39 40 41 40 40 40 39 39
37 36 34 34 35 35 34 34 33 33 34 33 32 31 31 32 31 32 31 32 34 35 35 28 34 33 35 35 37 39 40 40 40 39 39 39 38 38
34 34 34 33 34 34 32 30 30 32 35 35 35 35 36 36 35 33 30 29 28 31 34 31 32 32 33 33 35 37 39 39 39 39 39 39 38 37
30 30 30 30 32 32 30 30 28 30 30 30 31 31 32 32 32 32 31 28 29 28 33 29 31 30 28 31 31 33 36 37 38 39 39 38 38 38
28 28 30 30 30 31 31 30 29 29 28 28 28 28 29 28 29 29 29 27 25 27 34 32 30 31 29 29 31 32 32 33 35 36 37 37 37 37
27 28 28 29 30 30 29 30 29 27 26 25 24 24 24 25 25 26 27 28 29 28 30 30 30 30 29 28 27 31 30 30 30 31 32 33 34 35
27 27 27 28 28 28 29 28 26 25 23 21 21 21 23 23 25 24 25 26 26 26 30 29 29 31 31 28 28 27 28 29 30 30 30 30 31 32
26 26 26 27 27 26 26 25 24 23 21 20 19 21 21 21 19 21 19 20 18 20 27 28 27 28 30 30 31 28 29 27 28 29 29 29 30 30
25 25 25 24 23 23 23 22 22 21 19 19 19 17 17 17 16 18 17 16 14 16 17 22 26 26 27 31 28 29 28 27 29 30 27 28 30 31
24 22 20 19 19 20 19 19 19 18 18 18 16 15 13 12 13 15 14 12 11 13 14 17 19 20 26 31 32 28 28 28 28 29 28 26 28 31
21 21 17 16 17 19 18 17 16 16 16 14 12 10 10 10 11 10 11 10 9 11 12 15 16 18 17 19 29 33 29 27 27 26 28 26 26 29
19 16 16 16 16 16 15 14 14 10 8 9 8 6 3 8 7 8 8 6 7 9 10 14 15 17 15 14 17 26 33 28 26 26 25 26 28 29
15 15 15 14 13 12 8 3 1 2 0 -3 1 1 2 5 5 6 6 5 5 8 7 9 14 18 19 21 19 23 25 31 29 27 25 24 25 25
8 10 11 9 6 7 4 1 2 -0 1 1 1 2 1 2 3 3 4 4 6 7 7 11 15 17 17 17 20 21 24 24 28 31 30 29 25 22
2 5 7 7 7 7 7 2 0 -5 -2 1 4 4 0 0 3 4 5 6 5 5 6 8 12 15 15 17 20 23 20 22 26 26 27 30 30 31
MSLP
1018.93 1019.26 1019.50 1020.32 1020.57 1020.98 1021.22 1021.41 1022.19 1023.33 1023.73 1023.58 1023.70 1023.18 1023.41 1023.74 1023.90 1024.12 1024.22 1024.02 1024.00 1024.05 1024.08 1024.09 1024.07 1024.03 1023.93 1023.87 1023.96 1024.01 1024.09 1024.16 1024.20 1024.36 1024.34 1024.29 1024.44 1024.69
1018.20 1018.67 1019.02 1019.17 1019.63 1020.50 1020.79 1021.08 1021.42 1022.00 1022.88 1022.82 1023.10 1022.89 1023.13 1023.32 1023.42 1023.55 1023.64 1023.62 1023.64 1023.65 1023.59 1023.47 1023.41 1023.32 1023.30 1023.30 1023.21 1023.22 1023.30 1023.37 1023.47 1023.52 1023.57 1023.75 1023.83 1023.82
1017.50 1017.68 1018.18 1018.54 1018.96 1019.71 1020.40 1020.60 1020.92 1021.55 1022.15 1022.57 1022.81 1022.85 1023.01 1022.90 1022.87 1023.04 1023.16 1023.25 1023.17 1022.99 1022.84 1022.79 1022.82 1022.73 1022.61 1022.57 1022.51 1022.46 1022.48 1022.57 1022.64 1022.68 1022.78 1022.90 1023.00 1022.94
1016.59 1016.91 1017.36 1018.08 1018.37 1018.84 1019.26 1019.65 1020.50 1021.00 1021.64 1022.23 1022.63 1022.73 1022.72 1022.59 1022.64 1022.84 1022.63 1022.63 1022.74 1022.69 1022.58 1022.35 1022.21 1022.21 1021.97 1021.79 1021.76 1021.79 1021.86 1021.92 1021.91 1021.88 1022.03 1022.16 1022.22 1022.22
1015.54 1015.89 1016.43 1017.11 1017.67 1018.31 1018.84 1019.29 1019.76 1020.38 1021.09 1021.88 1022.34 1022.58 1022.64 1022.76 1022.75 1022.74 1022.72 1022.60 1022.48 1022.23 1022.00 1021.85 1021.57 1021.46 1021.21 1021.10 1021.07 1021.10 1021.14 1021.13 1021.21 1021.16 1021.20 1021.27 1021.45 1021.61
1014.80 1015.45 1015.86 1016.12 1016.61 1017.42 1018.34 1019.00 1019.49 1020.28 1020.94 1021.80 1022.42 1022.63 1022.67 1022.62 1022.82 1022.91 1022.69 1022.38 1022.16 1021.84 1021.45 1021.38 1021.09 1020.82 1020.52 1020.32 1020.35 1020.34 1020.29 1020.23 1020.17 1020.19 1020.30 1020.52 1020.77 1021.09
1014.52 1015.16 1015.76 1016.18 1016.43 1017.26 1018.10 1018.91 1019.41 1020.25 1020.99 1021.58 1022.02 1022.36 1022.52 1022.63 1022.59 1022.41 1022.31 1022.16 1021.81 1021.42 1021.04 1021.06 1020.68 1020.48 1020.08 1019.91 1019.71 1019.60 1019.41 1019.32 1019.38 1019.50 1019.68 1019.93 1020.19 1020.36
1014.19 1014.97 1015.51 1016.26 1017.11 1017.48 1018.36 1019.03 1019.64 1020.15 1020.78 1021.12 1021.52 1021.84 1022.01 1022.13 1022.14 1022.22 1022.14 1022.03 1021.34 1020.92 1020.95 1020.70 1020.54 1019.93 1019.66 1019.48 1019.15 1018.89 1018.66 1018.59 1018.69 1018.80 1018.96 1019.20 1019.46 1019.61
1014.40 1015.59 1016.11 1016.54 1016.84 1017.84 1018.96 1019.48 1019.72 1020.22 1020.44 1021.05 1021.34 1021.53 1021.59 1021.67 1021.81 1021.79 1021.73 1021.42 1020.92 1020.46 1020.45 1019.58 1019.66 1019.21 1018.96 1018.66 1018.39 1018.05 1017.84 1017.79 1017.91 1018.11 1018.37 1018.61 1018.78 1018.90
1015.25 1016.05 1016.96 1017.69 1018.07 1018.18 1019.02 1019.63 1020.09 1020.46 1020.63 1020.83 1020.96 1021.28 1021.33 1021.36 1021.47 1021.26 1021.03 1020.56 1019.97 1019.61 1019.77 1018.88 1018.76 1018.29 1018.15 1017.94 1017.62 1017.25 1017.04 1017.08 1017.25 1017.54 1017.78 1017.95 1018.03 1018.18
1016.25 1017.02 1017.74 1018.19 1018.93 1019.28 1019.42 1019.91 1020.17 1020.44 1020.53 1020.46 1020.59 1020.76 1020.95 1020.63 1020.57 1020.56 1020.39 1020.05 1019.17 1018.71 1018.73 1018.59 1017.95 1017.78 1017.62 1017.11 1016.71 1016.37 1016.35 1016.45 1016.68 1016.85 1017.06 1017.17 1017.40 1017.64
1017.88 1018.18 1018.62 1018.96 1019.25 1019.78 1019.94 1020.08 1020.21 1020.51 1020.61 1020.63 1020.72 1020.73 1020.77 1020.64 1020.61 1020.36 1020.05 1019.68 1019.26 1018.19 1017.61 1018.02 1017.56 1017.79 1017.06 1016.27 1016.05 1015.83 1015.71 1015.79 1016.05 1016.17 1016.45 1016.72 1017.02 1017.20
1018.49 1019.11 1019.45 1019.63 1019.78 1019.80 1019.79 1019.99 1020.33 1020.61 1020.88 1020.77 1020.65 1020.72 1020.58 1020.52 1020.23 1020.19 1020.14 1019.98 1019.42 1018.39 1017.60 1017.70 1017.00 1016.97 1016.76 1016.01 1015.48 1015.53 1015.53 1015.43 1015.61 1015.90 1016.02 1016.28 1016.50 1016.68
1019.35 1019.92 1020.07 1020.01 1019.90 1019.92 1020.06 1020.37 1020.67 1020.70 1020.67 1020.79 1020.70 1020.60 1020.54 1020.32 1020.28 1020.16 1019.85 1019.48 1019.09 1018.53 1017.78 1017.74 1016.61 1016.18 1015.76 1015.40 1015.09 1014.92 1015.03 1015.31 1015.56 1015.46 1015.63 1015.86 1016.04 1016.12
1019.88 1020.12 1020.13 1020.07 1020.31 1020.31 1020.45 1020.61 1020.66 1020.65 1020.81 1020.91 1020.80 1020.70 1020.61 1020.56 1020.22 1020.01 1019.65 1019.08 1018.66 1018.14 1017.32 1016.96 1016.50 1015.46 1014.78 1014.28 1014.27 1014.29 1014.57 1014.65 1014.88 1014.90 1015.03 1015.41 1015.51 1015.60
1020.09 1020.25 1020.35 1020.39 1020.35 1020.51 1020.59 1020.74 1020.88 1021.00 1021.03 1020.98 1020.94 1020.80 1020.76 1020.53 1020.29 1020.06 1019.57 1019.16 1018.49 1017.36 1016.92 1016.46 1015.95 1015.27 1013.75 1013.14 1013.20 1013.13 1013.33 1013.72 1013.92 1014.25 1014.53 1014.78 1014.90 1015.07
1020.40 1020.46 1020.50 1020.54 1020.64 1020.69 1020.83 1020.96 1021.10 1021.14 1021.08 1021.08 1020.96 1020.93 1020.84 1020.71 1020.44 1020.12 1019.76 1019.25 1018.76 1017.64 1016.52 1015.94 1015.22 1014.52 1013.41 1012.12 1011.93 1012.05 1012.37 1012.75 1013.17 1013.57 1014.13 1014.10 1014.16 1014.16
1020.59 1020.73 1020.85 1020.95 1020.98 1020.98 1020.99 1021.10 1021.24 1021.30 1021.31 1021.33 1021.36 1021.31 1021.23 1020.97 1020.52 1020.08 1019.83 1019.37 1018.60 1017.86 1017.02 1016.14 1015.24 1014.00 1012.29 1010.82 1010.79 1011.06 1011.54 1011.89 1012.40 1012.89 1013.24 1013.53 1013.44 1013.29
1021.07 1021.03 1021.34 1021.51 1021.53 1021.47 1021.53 1021.64 1021.68 1021.75 1021.80 1021.74 1021.64 1021.58 1021.49 1021.25 1020.84 1020.46 1019.92 1019.43 1018.76 1017.91 1017.13 1016.44 1015.59 1014.70 1013.25 1011.35 1010.23 1009.97 1010.46 1011.07 1011.74 1012.20 1012.56 1012.82 1012.82 1012.72
1022.01 1022.15 1022.23 1022.26 1022.21 1022.17 1022.17 1022.19 1022.16 1022.29 1022.30 1022.14 1021.95 1021.82 1021.73 1021.31 1021.01 1020.55 1020.04 1019.49 1018.86 1017.94 1016.98 1016.29 1015.56 1014.70 1013.98 1013.09 1011.92 1009.81 1009.63 1010.30 1010.84 1011.40 1011.89 1012.19 1012.31 1012.37
1023.28 1023.09 1022.99 1022.99 1022.97 1022.91 1022.96 1022.97 1023.01 1023.00 1022.91 1022.77 1022.36 1022.06 1021.72 1021.43 1021.04 1020.57 1020.06 1019.50 1018.96 1018.10 1017.09 1016.14 1015.44 1014.82 1013.72 1012.62 1011.40 1009.93 1009.48 1009.63 1009.97 1010.54 1011.09 1011.62 1011.91 1012.10
1024.46 1024.17 1023.98 1023.92 1023.84 1023.65 1023.52 1023.43 1023.30 1023.10 1022.88 1022.57 1022.17 1021.83 1021.57 1021.41 1020.94 1020.43 1019.95 1019.37 1018.75 1018.11 1017.17 1016.08 1015.02 1013.92 1012.93 1011.89 1010.33 1009.34 1009.28 1009.70 1009.84 1010.02 1010.37 1010.65 1011.09 1011.27
1025.36 1025.11 1024.85 1024.58 1024.30 1024.08 1023.97 1023.82 1023.58 1023.32 1022.91 1022.52 1022.06 1021.69 1021.37 1021.11 1020.57 1020.19 1019.70 1019.20 1018.67 1017.89 1017.09 1015.80 1014.67 1013.55 1012.36 1011.18 1009.79 1008.96 1009.19 1009.44 1009.66 1010.03 1010.18 1010.19 1010.42 1010.63
Wind_Speed
9 10 8 6 6 5 4 4 6 5 6 4 4 4 4 4 7 4 5 10 11 12 14 15 16 17 18 19 20 21 21 21 21 20 23 20 18 17
7 10 9 7 9 7 6 6 3 4 4 5 6 4 3 3 6 5 6 11 12 14 14 15 16 17 18 18 19 20 22 23 22 22 23 21 22 18
10 12 13 11 8 8 6 5 6 4 5 2 3 2 3 5 4 3 4 5 5 12 14 15 16 17 18 19 20 21 22 22 23 24 24 23 24 21
15 13 13 8 11 9 8 9 7 5 4 7 3 4 5 3 3 4 3 3 3 7 11 14 15 18 19 19 20 20 20 21 21 22 24 24 24 22
14 14 14 12 10 6 5 6 4 4 4 3 4 2 2 1 2 2 3 4 3 9 12 13 15 16 17 18 18 18 19 21 19 19 19 19 20 20
11 12 11 13 11 9 7 6 5 4 3 3 3 3 3 1 1 2 3 2 3 5 9 10 12 14 17 17 17 17 17 18 20 16 13 12 13 16
7 6 5 4 6 5 4 4 6 4 3 3 3 2 2 2 3 2 3 4 4 5 6 5 6 5 7 12 15 17 18 16 13 13 13 13 15 16
10 7 8 12 11 11 10 8 5 5 3 2 2 3 3 3 2 2 2 3 4 2 1 2 4 7 8 7 15 19 18 17 16 17 16 15 15 15
10 7 6 8 11 9 9 9 7 5 3 3 3 4 3 3 2 3 5 6 7 7 6 10 5 9 8 9 18 20 17 16 14 10 11 13 13 15
9 9 10 7 5 7 6 4 2 1 1 2 3 3 4 5 6 6 8 9 8 9 7 10 5 9 7 7 17 20 17 14 12 12 14 14 14 12
10 9 8 8 8 6 4 3 1 0 1 3 3 5 9 9 8 5 6 6 9 8 5 7 7 8 7 8 9 18 18 15 14 13 13 13 9 8
8 10 13 8 7 4 2 1 1 2 2 2 3 4 5 4 8 5 5 7 9 8 2 5 6 4 5 3 5 6 7 15 14 12 12 9 8 6
6 5 4 6 4 2 2 2 3 3 2 2 3 3 2 4 3 4 6 5 7 9 6 4 5 6 6 6 3 3 5 5 5 6 11 11 11 10
5 3 3 5 5 3 5 6 6 3 2 2 2 3 4 4 5 7 8 8 7 11 12 10 8 7 8 7 7 3 4 3 4 5 5 8 10 12
5 5 6 6 2 4 5 6 4 3 2 1 3 4 4 6 8 8 9 10 11 12 10 11 10 13 10 10 7 6 5 7 8 6 4 6 5 5
3 2 1 2 2 3 2 3 2 2 2 2 4 4 5 6 7 7 8 8 9 8 9 10 10 12 12 10 10 8 8 5 5 6 6 5 5 6
1 1 0 0 0 0 1 1 1 1 2 2 4 5 6 6 7 6 7 8 8 9 10 9 12 12 13 12 8 8 7 6 6 5 5 4 6 7
1 0 1 1 1 2 1 0 1 2 3 4 4 5 6 6 7 6 7 7 8 9 10 10 10 11 9 9 16 7 7 7 6 7 6 5 6 5
3 2 2 2 2 2 3 3 3 3 4 4 4 4 5 6 6 7 7 7 9 9 9 9 9 9 9 11 3 20 7 6 5 4 6 6 4 4
6 5 4 3 3 3 3 4 4 3 3 4 4 4 4 5 6 7 7 7 9 10 10 9 8 8 8 6 7 3 20 6 6 6 4 2 4 6
6 5 3 3 4 4 3 4 2 3 3 4 4 4 4 4 6 7 7 9 9 10 11 11 10 17 11 9 7 5 3 12 6 5 4 3 2 1
4 5 5 5 4 4 3 3 3 4 4 5 5 4 3 4 6 6 6 8 9 9 10 10 12 10 9 8 9 4 3 1 5 8 8 7 5 4
4 5 5 5 5 5 6 4 5 4 4 5 5 6 4 6 6 5 7 8 9 9 10 11 10 10 10 9 12 3 5 3 3 3 3 12 14 9
Wind_Direction
203 188 177 180 178 186 172 155 167 181 214 227 223 210 210 201 231 228 231 246 246 243 243 245 247 249 253 256 257 259 258 259 263 262 282 280 272 278
196 189 198 187 177 192 188 182 171 160 195 196 217 207 208 216 235 221 232 239 240 243 247 248 248 249 250 252 252 250 249 251 255 264 277 273 265 265
201 198 201 191 188 186 186 178 185 161 194 223 224 224 230 229 261 248 249 244 249 252 249 248 247 246 245 244 244 244 244 247 255 263 268 267 264 262
207 201 203 192 193 186 184 179 191 177 159 210 206 224 212 236 238 274 276 254 255 269 261 256 256 252 244 241 242 243 247 251 257 262 263 262 262 259
208 204 202 186 187 167 184 186 173 158 167 161 217 229 253 267 303 278 266 283 276 277 273 274 266 262 255 249 246 245 247 249 256 256 259 247 245 253
205 207 201 192 181 171 177 193 158 165 137 149 188 233 226 237 227 254 272 247 274 280 276 275 275 272 273 269 259 254 253 255 253 238 230 230 234 243
170 146 128 122 127 133 142 164 145 148 158 172 179 187 214 221 227 223 266 280 278 251 269 266 278 284 279 282 274 267 263 245 228 227 235 240 239 240
148 121 113 111 95 85 93 118 142 159 166 167 176 203 213 225 217 247 263 282 300 232 251 263 265 272 273 265 267 267 255 243 236 234 240 242 239 241
99 93 101 113 105 114 105 105 92 91 118 165 202 215 232 218 227 253 249 254 266 281 273 280 254 266 267 271 274 266 254 238 222 224 239 245 247 248
100 111 117 98 97 111 123 112 107 104 221 218 217 253 248 250 239 255 264 266 275 278 252 270 266 265 272 260 261 268 249 229 227 235 242 246 243 229
86 88 92 87 80 82 98 137 134 282 12 356 326 305 293 295 289 285 278 274 283 274 221 253 264 270 270 268 255 256 238 238 236 235 244 242 212 224
69 72 73 83 80 63 79 126 148 112 30 13 345 334 318 338 335 329 311 277 276 288 242 221 255 236 274 227 263 253 238 234 227 231 210 207 235 250
84 83 77 68 60 71 129 135 103 86 36 349 338 305 341 322 319 335 319 298 289 278 298 267 270 252 233 274 272 256 225 212 198 208 216 231 240 247
80 75 45 20 28 38 96 109 108 107 76 7 331 324 322 325 331 310 301 286 282 288 296 292 276 251 251 253 258 214 205 217 230 211 216 232 247 251
68 44 27 25 358 132 133 122 92 80 51 353 337 326 332 325 313 317 308 301 297 289 282 281 279 271 252 244 247 213 180 214 220 220 223 231 232 225
78 69 345 275 158 126 128 91 73 53 5 350 330 333 325 329 319 320 310 319 304 297 305 293 289 304 268 235 235 228 199 194 195 211 222 228 230 235
35 13 116 320 39 155 121 98 50 16 341 351 323 324 324 323 318 315 319 316 303 306 309 311 312 296 289 254 226 214 190 197 209 195 187 225 242 236
39 327 231 242 268 287 243 126 14 355 347 332 327 319 316 313 309 316 314 307 302 303 303 312 318 316 315 245 216 202 203 206 205 204 195 216 250 245
350 352 40 28 338 354 31 9 337 350 339 325 313 313 314 315 315 313 310 309 305 305 303 305 304 302 308 284 222 204 204 191 191 186 199 196 218 235
35 33 20 21 0 351 350 331 318 338 329 321 309 306 302 294 315 309 311 306 307 309 306 304 301 302 312 299 318 279 203 184 185 200 180 184 238 278
6 359 2 16 360 344 345 333 323 323 307 308 297 292 291 294 306 303 305 304 300 307 306 303 300 295 285 276 242 217 190 216 162 168 155 163 179 180
0 359 2 359 350 337 332 333 310 306 306 304 291 277 292 291 291 290 298 302 306 304 297 299 302 300 297 278 268 201 156 131 218 186 178 173 166 197
357 353 348 351 347 345 339 334 318 299 293 293 297 301 294 294 286 285 293 295 299 301 303 305 308 303 301 293 275 184 147 147 147 170 224 223 223 227